Time,TemperatureF,DewpointF,PressureIn,WindDirection,WindDirectionDegrees,WindSpeedMPH,WindSpeedGustMPH,Humidity,HourlyPrecipIn,Conditions,Clouds,dailyrainin,SoftwareType,DateUTC
2013-01-16 00:00:00,30.6,30.6,29.23,ENE,64,2.2,2.2,100,0.00,,---,0.00,VWS V14.00,2013-01-16 05:00:00,
2013-01-16 00:01:00,30.6,30.6,29.23,ENE,64,2.2,2.2,100,0.00,,---,0.00,VWS V14.00,2013-01-16 05:01:00,
2013-01-16 00:06:00,30.4,30.4,29.23,NNE,26,0.0,3.1,100,0.00,,---,0.00,VWS V14.00,2013-01-16 05:06:00,
2013-01-16 00:11:00,30.4,30.4,29.21,NNE,19,3.6,3.6,100,0.00,,---,0.00,VWS V14.00,2013-01-16 05:11:00,
2013-01-16 00:16:00,30.4,30.4,29.21,ENE,74,2.7,2.7,100,0.00,,---,0.00,VWS V14.00,2013-01-16 05:16:00,
2013-01-16 00:21:00,30.6,30.6,29.21,NE,42,0.0,0.0,100,0.00,,---,0.00,VWS V14.00,2013-01-16 05:21:00,
2013-01-16 00:26:00,30.6,30.6,29.21,NE,42,0.0,0.0,100,0.00,,---,0.00,VWS V14.00,2013-01-16 05:26:00,
2013-01-16 00:31:00,30.6,30.6,29.21,NNE,22,2.7,3.1,100,0.00,,---,0.00,VWS V14.00,2013-01-16 05:31:00,
2013-01-16 00:36:00,30.6,30.6,29.21,ENE,59,2.7,3.6,100,0.00,,---,0.00,VWS V14.00,2013-01-16 05:36:00,
2013-01-16 00:41:00,30.6,30.6,29.21,ENE,70,3.1,3.6,100,0.00,,---,0.00,VWS V14.00,2013-01-16 05:41:00,
2013-01-16 00:46:00,30.6,30.6,29.21,ENE,59,2.7,2.7,100,0.00,,---,0.00,VWS V14.00,2013-01-16 05:46:00,
2013-01-16 00:51:00,30.6,30.6,29.21,East,79,3.6,3.6,100,0.00,,---,0.00,VWS V14.00,2013-01-16 05:51:00,
2013-01-16 00:56:00,30.6,30.6,29.18,NE,49,2.2,2.2,100,0.00,,---,0.00,VWS V14.00,2013-01-16 05:56:00,
2013-01-16 01:01:00,30.6,30.6,29.18,NNE,31,3.1,3.1,100,0.00,,---,0.00,VWS V14.00,2013-01-16 06:01:00,
2013-01-16 01:06:00,30.6,30.6,29.18,NNE,32,0.0,0.0,100,0.00,,---,0.00,VWS V14.00,2013-01-16 06:06:00,
2013-01-16 01:11:00,30.6,30.6,29.18,NNE,32,0.0,0.0,100,0.00,,---,0.00,VWS V14.00,2013-01-16 06:11:00,
2013-01-16 01:16:00,30.6,30.6,29.18,NNE,32,2.7,2.7,100,0.00,,---,0.00,VWS V14.00,2013-01-16 06:16:00,
2013-01-16 01:21:00,30.6,30.6,29.21,NNE,32,0.0,0.0,100,0.00,,---,0.00,VWS V14.00,2013-01-16 06:21:00,
2013-01-16 01:26:00,30.7,30.7,29.21,NNE,32,0.0,0.0,100,0.00,,---,0.00,VWS V14.00,2013-01-16 06:26:00,
2013-01-16 01:31:00,30.7,30.7,29.21,NNE,32,0.0,0.0,100,0.00,,---,0.00,VWS V14.00,2013-01-16 06:31:00,
2013-01-16 01:36:00,30.7,30.7,29.21,NNE,32,0.0,0.0,100,0.00,,---,0.00,VWS V14.00,2013-01-16 06:36:00,
2013-01-16 01:41:00,30.7,30.7,29.21,NNE,32,0.0,0.0,100,0.00,,---,0.00,VWS V14.00,2013-01-16 06:41:00,
2013-01-16 01:46:00,30.9,30.9,29.21,NNE,31,0.0,0.0,100,0.00,,---,0.00,VWS V14.00,2013-01-16 06:46:00,
2013-01-16 01:51:00,30.9,30.9,29.21,NNE,32,0.0,0.0,100,0.00,,---,0.00,VWS V14.00,2013-01-16 06:51:00,
2013-01-16 01:56:00,30.9,30.9,29.21,NNE,32,0.0,0.0,100,0.00,,---,0.00,VWS V14.00,2013-01-16 06:56:00,
2013-01-16 02:01:00,30.9,30.9,29.21,NNE,32,0.0,0.0,100,0.00,,---,0.00,VWS V14.00,2013-01-16 07:01:00,
2013-01-16 02:06:00,30.9,30.9,29.21,NNE,32,0.0,0.0,100,0.00,,---,0.00,VWS V14.00,2013-01-16 07:06:00,
2013-01-16 02:11:00,30.9,30.9,29.18,NNE,32,0.0,0.0,100,0.00,,---,0.00,VWS V14.00,2013-01-16 07:11:00,
2013-01-16 02:16:00,30.9,30.9,29.18,NNE,31,0.0,0.0,100,0.00,,---,0.00,VWS V14.00,2013-01-16 07:16:00,
2013-01-16 02:21:00,30.9,30.9,29.18,NNE,31,0.0,0.0,100,0.00,,---,0.00,VWS V14.00,2013-01-16 07:21:00,
2013-01-16 02:26:00,30.9,30.9,29.18,NNE,32,2.2,2.2,100,0.00,,---,0.00,VWS V14.00,2013-01-16 07:26:00,
2013-01-16 02:31:00,30.9,30.9,29.18,NNE,32,0.0,0.0,100,0.00,,---,0.00,VWS V14.00,2013-01-16 07:31:00,
2013-01-16 02:36:00,30.9,30.9,29.18,NNE,32,0.0,0.0,100,0.00,,---,0.00,VWS V14.00,2013-01-16 07:36:00,
2013-01-16 02:41:00,30.9,30.9,29.18,NNE,31,0.0,0.0,100,0.00,,---,0.00,VWS V14.00,2013-01-16 07:41:00,
2013-01-16 02:46:00,30.9,30.9,29.18,NNE,32,0.0,0.0,100,0.00,,---,0.00,VWS V14.00,2013-01-16 07:46:00,
2013-01-16 02:51:00,30.9,30.9,29.18,NNE,32,0.0,0.0,100,0.00,,---,0.00,VWS V14.00,2013-01-16 07:51:00,
2013-01-16 02:56:00,30.9,30.9,29.18,NNE,32,0.0,0.0,100,0.00,,---,0.00,VWS V14.00,2013-01-16 07:56:00,
2013-01-16 03:01:00,30.9,30.9,29.18,NNE,32,0.0,0.0,100,0.00,,---,0.00,VWS V14.00,2013-01-16 08:01:00,
2013-01-16 03:06:00,30.9,30.9,29.18,NNE,32,0.0,0.0,100,0.00,,---,0.00,VWS V14.00,2013-01-16 08:06:00,
2013-01-16 03:11:00,31.1,31.1,29.18,NNE,32,0.0,0.0,100,0.00,,---,0.00,VWS V14.00,2013-01-16 08:11:00,
2013-01-16 05:20:00,30.7,30.7,29.15,NNE,32,0.0,0.0,100,0.00,,---,0.00,VWS V14.00,2013-01-16 10:20:00,
2013-01-16 05:25:00,30.7,30.7,29.15,NNE,32,0.0,0.0,100,0.00,,---,0.00,VWS V14.00,2013-01-16 10:25:00,
2013-01-16 05:30:00,30.7,30.7,29.15,NNE,32,0.0,0.0,100,0.00,,---,0.00,VWS V14.00,2013-01-16 10:30:00,
2013-01-16 05:35:00,30.7,30.7,29.15,NNE,32,0.0,0.0,100,0.00,,---,0.00,VWS V14.00,2013-01-16 10:35:00,
2013-01-16 05:40:00,30.7,30.7,29.15,NNE,32,0.0,0.0,100,0.00,,---,0.00,VWS V14.00,2013-01-16 10:40:00,
2013-01-16 05:45:00,30.7,30.7,29.15,NNE,32,0.0,0.0,100,0.00,,---,0.00,VWS V14.00,2013-01-16 10:45:00,
2013-01-16 05:50:00,30.6,30.6,29.15,NNE,32,0.0,0.0,100,0.00,,---,0.00,VWS V14.00,2013-01-16 10:50:00,
2013-01-16 05:55:00,30.6,30.6,29.15,NNE,32,0.0,0.0,100,0.00,,---,0.00,VWS V14.00,2013-01-16 10:55:00,
2013-01-16 06:00:00,30.6,30.6,29.15,NNE,32,0.0,0.0,100,0.00,,---,0.00,VWS V14.00,2013-01-16 11:00:00,
2013-01-16 06:05:00,30.6,30.6,29.15,NNE,32,0.0,0.0,100,0.00,,---,0.00,VWS V14.00,2013-01-16 11:05:00,
2013-01-16 06:10:00,30.6,30.6,29.15,NNE,32,0.0,0.0,100,0.00,,---,0.00,VWS V14.00,2013-01-16 11:10:00,
2013-01-16 06:15:00,30.6,30.6,29.15,NNE,32,0.0,0.0,100,0.00,,---,0.00,VWS V14.00,2013-01-16 11:15:00,
2013-01-16 06:20:00,30.4,30.4,29.12,NNE,32,0.0,0.0,100,0.00,,---,0.00,VWS V14.00,2013-01-16 11:20:00,
2013-01-16 06:25:00,30.2,30.2,29.12,NNE,32,0.0,0.0,100,0.00,,---,0.00,VWS V14.00,2013-01-16 11:25:00,
2013-01-16 06:30:00,30.2,30.2,29.12,NNE,31,0.0,0.0,100,0.00,,---,0.00,VWS V14.00,2013-01-16 11:30:00,
2013-01-16 06:35:00,30.2,30.2,29.12,NNE,32,0.0,0.0,100,0.00,,---,0.00,VWS V14.00,2013-01-16 11:35:00,
2013-01-16 06:40:00,30.0,30.0,29.12,NNE,31,0.0,0.0,100,0.00,,---,0.00,VWS V14.00,2013-01-16 11:40:00,
2013-01-16 06:45:00,30.2,30.2,29.12,NNE,32,0.0,0.0,100,0.00,,---,0.00,VWS V14.00,2013-01-16 11:45:00,
2013-01-16 06:50:00,30.2,30.2,29.12,NNE,32,0.0,0.0,100,0.00,,---,0.00,VWS V14.00,2013-01-16 11:50:00,
2013-01-16 06:55:00,30.2,30.2,29.15,NNE,32,0.0,0.0,100,0.00,,---,0.00,VWS V14.00,2013-01-16 11:55:00,
2013-01-16 07:00:00,30.2,30.2,29.15,NNE,32,0.0,0.0,100,0.00,,---,0.00,VWS V14.00,2013-01-16 12:00:00,
2013-01-16 07:05:00,30.2,30.2,29.15,NNE,32,0.0,0.0,100,0.00,,---,0.00,VWS V14.00,2013-01-16 12:05:00,
2013-01-16 07:10:00,30.2,30.2,29.15,NNE,32,0.0,0.0,100,0.00,,---,0.00,VWS V14.00,2013-01-16 12:10:00,
2013-01-16 07:15:00,30.2,30.2,29.15,NNW,328,0.0,0.0,100,0.00,,---,0.00,VWS V14.00,2013-01-16 12:15:00,
2013-01-16 07:20:00,30.2,30.2,29.15,NNW,328,0.0,0.0,100,0.00,,---,0.00,VWS V14.00,2013-01-16 12:20:00,
2013-01-16 07:25:00,30.2,30.2,29.15,NNW,328,0.0,0.0,100,0.00,,---,0.00,VWS V14.00,2013-01-16 12:25:00,
2013-01-16 07:30:00,30.4,30.4,29.15,NNW,328,0.0,0.0,100,0.00,,---,0.00,VWS V14.00,2013-01-16 12:30:00,
2013-01-16 07:35:00,30.2,30.2,29.15,NNW,328,0.0,0.0,100,0.00,,---,0.00,VWS V14.00,2013-01-16 12:35:00,
2013-01-16 07:40:00,30.2,30.2,29.15,NNW,328,0.0,0.0,100,0.00,,---,0.00,VWS V14.00,2013-01-16 12:40:00,
2013-01-16 07:45:00,30.2,30.2,29.15,NNW,328,0.0,0.0,100,0.00,,---,0.00,VWS V14.00,2013-01-16 12:45:00,
2013-01-16 07:50:00,30.0,30.0,29.15,WNW,297,0.0,0.0,100,0.00,,---,0.00,VWS V14.00,2013-01-16 12:50:00,
2013-01-16 07:55:00,30.0,30.0,29.15,WNW,301,0.0,0.0,100,0.00,,---,0.00,VWS V14.00,2013-01-16 12:55:00,
2013-01-16 08:00:00,30.0,30.0,29.15,NW,305,0.0,0.0,100,0.00,,---,0.00,VWS V14.00,2013-01-16 13:00:00,
2013-01-16 08:05:00,30.0,30.0,29.15,WNW,300,0.0,0.0,100,0.00,,---,0.00,VWS V14.00,2013-01-16 13:05:00,
2013-01-16 08:10:00,30.0,30.0,29.15,NW,312,0.0,0.0,100,0.00,,---,0.00,VWS V14.00,2013-01-16 13:10:00,
2013-01-16 08:15:00,30.0,30.0,29.15,NW,311,0.0,0.0,100,0.00,,---,0.00,VWS V14.00,2013-01-16 13:15:00,
2013-01-16 08:20:00,30.0,30.0,29.15,NW,311,0.0,0.0,100,0.00,,---,0.00,VWS V14.00,2013-01-16 13:20:00,
2013-01-16 08:25:00,30.2,30.2,29.15,NW,312,0.0,0.0,100,0.00,,---,0.00,VWS V14.00,2013-01-16 13:25:00,
2013-01-16 08:30:00,30.2,30.2,29.15,NNW,329,0.0,0.0,100,0.00,,---,0.00,VWS V14.00,2013-01-16 13:30:00,
2013-01-16 08:35:00,30.2,30.2,29.15,NNW,329,0.0,0.0,100,0.00,,---,0.00,VWS V14.00,2013-01-16 13:35:00,
2013-01-16 08:40:00,30.2,30.2,29.15,NNW,329,3.1,3.1,100,0.00,,---,0.00,VWS V14.00,2013-01-16 13:40:00,
2013-01-16 08:45:00,30.4,30.4,29.15,NW,312,2.2,2.2,100,0.00,,---,0.00,VWS V14.00,2013-01-16 13:45:00,
2013-01-16 08:50:00,30.4,30.4,29.15,NW,312,0.0,0.0,100,0.00,,---,0.00,VWS V14.00,2013-01-16 13:50:00,
2013-01-16 08:55:00,30.4,30.4,29.15,NW,315,3.6,3.6,100,0.00,,---,0.00,VWS V14.00,2013-01-16 13:55:00,
2013-01-16 09:00:00,30.6,30.6,29.15,WNW,292,0.0,0.0,100,0.00,,---,0.00,VWS V14.00,2013-01-16 14:00:00,
2013-01-16 09:05:00,30.6,30.6,29.15,West,273,2.2,2.2,100,0.00,,---,0.00,VWS V14.00,2013-01-16 14:05:00,
2013-01-16 09:10:00,30.6,30.6,29.18,West,273,2.2,2.2,100,0.00,,---,0.00,VWS V14.00,2013-01-16 14:10:00,
2013-01-16 09:15:00,30.9,30.9,29.18,West,263,0.0,0.0,100,0.00,,---,0.00,VWS V14.00,2013-01-16 14:15:00,
2013-01-16 09:20:00,30.9,30.9,29.18,West,263,0.0,0.0,100,0.00,,---,0.00,VWS V14.00,2013-01-16 14:20:00,
2013-01-16 09:25:00,30.9,30.9,29.18,West,264,2.7,2.7,100,0.00,,---,0.00,VWS V14.00,2013-01-16 14:25:00,
2013-01-16 09:30:00,30.9,30.9,29.18,West,264,2.7,2.7,100,0.00,,---,0.00,VWS V14.00,2013-01-16 14:30:00,
2013-01-16 09:35:00,31.1,31.1,29.18,WNW,292,0.0,0.0,100,0.00,,---,0.00,VWS V14.00,2013-01-16 14:35:00,
2013-01-16 09:40:00,31.1,31.1,29.21,West,272,3.1,3.1,100,0.00,,---,0.00,VWS V14.00,2013-01-16 14:40:00,
2013-01-16 09:45:00,31.1,31.1,29.21,SW,222,2.2,2.2,100,0.00,,---,0.00,VWS V14.00,2013-01-16 14:45:00,
2013-01-16 09:50:00,31.1,31.1,29.21,WSW,239,0.0,0.0,100,0.00,,---,0.00,VWS V14.00,2013-01-16 14:50:00,
2013-01-16 09:55:00,31.3,31.3,29.18,West,272,0.0,0.0,100,0.00,,---,0.00,VWS V14.00,2013-01-16 14:55:00,
2013-01-16 10:00:00,31.3,31.3,29.18,WNW,283,0.0,0.0,100,0.00,,---,0.00,VWS V14.00,2013-01-16 15:00:00,
2013-01-16 10:05:00,31.6,31.6,29.18,WNW,283,0.0,0.0,100,0.00,,---,0.00,VWS V14.00,2013-01-16 15:05:00,
2013-01-16 10:10:00,31.6,31.6,29.18,West,267,0.0,0.0,100,0.00,,---,0.00,VWS V14.00,2013-01-16 15:10:00,
2013-01-16 10:15:00,31.8,31.8,29.18,West,267,0.0,0.0,100,0.00,,---,0.00,VWS V14.00,2013-01-16 15:15:00,
2013-01-16 10:20:00,31.8,31.8,29.18,West,272,0.0,0.0,100,0.00,,---,0.00,VWS V14.00,2013-01-16 15:20:00,
2013-01-16 10:25:00,31.8,31.8,29.18,West,265,2.7,2.7,100,0.00,,---,0.00,VWS V14.00,2013-01-16 15:25:00,
2013-01-16 10:30:00,32.2,32.2,29.18,WSW,247,3.6,3.6,100,0.00,,---,0.00,VWS V14.00,2013-01-16 15:30:00,
2013-01-16 10:35:00,32.2,32.2,29.18,WSW,246,4.0,4.0,100,0.00,,---,0.00,VWS V14.00,2013-01-16 15:35:00,
2013-01-16 10:40:00,32.4,32.4,29.18,WSW,246,4.0,4.0,100,0.00,,---,0.00,VWS V14.00,2013-01-16 15:40:00,
2013-01-16 10:45:00,32.4,32.4,29.18,WSW,254,3.6,3.6,100,0.00,,---,0.00,VWS V14.00,2013-01-16 15:45:00,
2013-01-16 10:50:00,32.4,32.4,29.18,WSW,254,3.6,3.6,100,0.00,,---,0.00,VWS V14.00,2013-01-16 15:50:00,
2013-01-16 10:55:00,32.5,32.5,29.15,WSW,254,3.6,3.6,100,0.00,,---,0.00,VWS V14.00,2013-01-16 15:55:00,
2013-01-16 11:00:00,32.5,32.5,29.15,West,272,2.7,2.7,100,0.00,,---,0.00,VWS V14.00,2013-01-16 16:00:00,
2013-01-16 11:05:00,32.5,32.5,29.18,WNW,301,2.7,2.7,100,0.00,,---,0.00,VWS V14.00,2013-01-16 16:05:00,
2013-01-16 11:10:00,32.5,32.5,29.18,West,263,4.0,4.0,100,0.00,,---,0.00,VWS V14.00,2013-01-16 16:10:00,
2013-01-16 11:15:00,32.9,32.9,29.18,West,263,4.0,4.0,100,0.00,,---,0.00,VWS V14.00,2013-01-16 16:15:00,
2013-01-16 11:20:00,33.1,33.1,29.18,West,263,4.0,4.0,100,0.00,,---,0.00,VWS V14.00,2013-01-16 16:20:00,
2013-01-16 11:25:00,33.1,33.1,29.18,West,270,6.3,6.3,100,0.00,,---,0.00,VWS V14.00,2013-01-16 16:25:00,
2013-01-16 11:30:00,33.1,33.1,29.18,WNW,290,3.6,3.6,100,0.00,,---,0.00,VWS V14.00,2013-01-16 16:30:00,
2013-01-16 11:35:00,33.1,33.1,29.18,WSW,245,3.6,3.6,100,0.00,,---,0.00,VWS V14.00,2013-01-16 16:35:00,
2013-01-16 11:40:00,33.4,33.4,29.18,West,277,2.7,2.7,100,0.00,,---,0.00,VWS V14.00,2013-01-16 16:40:00,
2013-01-16 11:45:00,33.6,33.6,29.18,West,277,2.7,2.7,100,0.00,,---,0.00,VWS V14.00,2013-01-16 16:45:00,
2013-01-16 11:50:00,33.4,33.4,29.18,NW,307,6.3,6.3,100,0.00,,---,0.00,VWS V14.00,2013-01-16 16:50:00,
2013-01-16 11:55:00,33.6,33.6,29.15,WNW,288,2.7,2.7,100,0.00,,---,0.00,VWS V14.00,2013-01-16 16:55:00,
2013-01-16 12:00:00,33.6,33.6,29.15,West,280,2.7,3.1,100,0.00,,---,0.00,VWS V14.00,2013-01-16 17:00:00,
2013-01-16 12:05:00,34.0,34.0,29.15,West,280,2.7,2.7,100,0.00,,---,0.00,VWS V14.00,2013-01-16 17:05:00,
2013-01-16 12:10:00,34.0,34.0,29.15,NW,313,2.2,2.2,100,0.00,,---,0.00,VWS V14.00,2013-01-16 17:10:00,
2013-01-16 12:15:00,34.3,34.3,29.15,NW,313,2.2,2.2,100,0.00,,---,0.00,VWS V14.00,2013-01-16 17:15:00,
2013-01-16 12:20:00,34.3,34.3,29.15,NW,310,2.7,2.7,100,0.00,,---,0.00,VWS V14.00,2013-01-16 17:20:00,
2013-01-16 12:25:00,34.3,34.3,29.15,NW,310,2.7,2.7,100,0.00,,---,0.00,VWS V14.00,2013-01-16 17:25:00,
2013-01-16 12:30:00,34.7,34.7,29.15,NW,313,3.6,3.6,100,0.00,,---,0.00,VWS V14.00,2013-01-16 17:30:00,
2013-01-16 12:35:00,34.7,34.7,29.15,NW,313,3.6,3.6,100,0.00,,---,0.00,VWS V14.00,2013-01-16 17:35:00,
2013-01-16 12:40:00,34.9,34.9,29.15,West,270,4.9,4.9,100,0.00,,---,0.00,VWS V14.00,2013-01-16 17:40:00,
2013-01-16 12:45:00,34.9,34.9,29.15,WNW,288,3.6,3.6,100,0.00,,---,0.00,VWS V14.00,2013-01-16 17:45:00,
2013-01-16 12:50:00,35.2,35.2,29.15,WNW,288,3.6,3.6,100,0.00,,---,0.00,VWS V14.00,2013-01-16 17:50:00,
2013-01-16 12:55:00,35.2,35.2,29.15,SW,226,2.7,2.7,100,0.00,,---,0.00,VWS V14.00,2013-01-16 17:55:00,
2013-01-16 13:00:00,35.4,35.4,29.15,SW,226,2.7,2.7,100,0.00,,---,0.00,VWS V14.00,2013-01-16 18:00:00,
2013-01-16 13:05:00,35.8,35.8,29.15,West,278,4.0,4.0,100,0.00,,---,0.00,VWS V14.00,2013-01-16 18:05:00,
2013-01-16 13:10:00,36.0,36.0,29.12,WNW,282,4.0,4.0,100,0.00,,---,0.00,VWS V14.00,2013-01-16 18:10:00,
2013-01-16 13:15:00,36.0,36.0,29.12,WNW,285,6.7,6.7,100,0.00,,---,0.00,VWS V14.00,2013-01-16 18:15:00,
2013-01-16 13:20:00,36.0,36.0,29.12,WNW,287,2.7,2.7,100,0.00,,---,0.00,VWS V14.00,2013-01-16 18:20:00,
2013-01-16 13:25:00,36.0,36.0,29.12,WNW,287,2.7,2.7,100,0.00,,---,0.00,VWS V14.00,2013-01-16 18:25:00,
2013-01-16 13:30:00,36.0,36.0,29.12,WNW,287,2.7,2.7,100,0.00,,---,0.00,VWS V14.00,2013-01-16 18:30:00,
2013-01-16 13:35:00,36.1,36.1,29.12,SW,223,4.0,8.7,100,0.00,,---,0.00,VWS V14.00,2013-01-16 18:35:00,
2013-01-16 13:40:00,36.1,36.1,29.15,SW,223,4.0,4.0,100,0.00,,---,0.00,VWS V14.00,2013-01-16 18:40:00,
2013-01-16 13:45:00,36.0,36.0,29.15,WNW,290,4.0,4.0,100,0.00,,---,0.00,VWS V14.00,2013-01-16 18:45:00,
2013-01-16 13:50:00,36.0,36.0,29.12,WSW,254,4.9,4.9,100,0.00,,---,0.00,VWS V14.00,2013-01-16 18:50:00,
2013-01-16 13:55:00,36.0,36.0,29.12,WSW,254,4.9,4.9,100,0.00,,---,0.00,VWS V14.00,2013-01-16 18:55:00,
2013-01-16 14:00:00,36.3,36.3,29.12,NW,313,3.6,3.6,100,0.00,,---,0.00,VWS V14.00,2013-01-16 19:00:00,
2013-01-16 14:05:00,36.3,36.3,29.15,West,266,3.6,3.6,100,0.00,,---,0.00,VWS V14.00,2013-01-16 19:05:00,
2013-01-16 14:10:00,36.3,36.3,29.15,West,275,5.4,5.8,100,0.00,,---,0.00,VWS V14.00,2013-01-16 19:10:00,
2013-01-16 14:15:00,36.3,36.3,29.15,West,275,5.4,5.4,100,0.00,,---,0.00,VWS V14.00,2013-01-16 19:15:00,
2013-01-16 14:20:00,36.3,36.3,29.15,SW,233,2.7,2.7,100,0.00,,---,0.00,VWS V14.00,2013-01-16 19:20:00,
2013-01-16 14:25:00,36.5,36.5,29.15,West,267,3.1,3.1,100,0.00,,---,0.00,VWS V14.00,2013-01-16 19:25:00,
2013-01-16 14:30:00,36.5,36.5,29.15,WNW,297,0.0,0.0,100,0.00,,---,0.00,VWS V14.00,2013-01-16 19:30:00,
2013-01-16 14:35:00,36.3,36.3,29.15,West,276,3.1,3.1,100,0.00,,---,0.00,VWS V14.00,2013-01-16 19:35:00,
2013-01-16 14:40:00,36.1,36.1,29.15,West,275,2.7,2.7,100,0.00,,---,0.00,VWS V14.00,2013-01-16 19:40:00,
2013-01-16 14:45:00,36.1,36.1,29.15,NW,307,3.6,3.6,100,0.00,,---,0.00,VWS V14.00,2013-01-16 19:45:00,
2013-01-16 14:50:00,36.5,36.5,29.15,West,272,3.6,3.6,100,0.00,,---,0.00,VWS V14.00,2013-01-16 19:50:00,
2013-01-16 14:55:00,36.5,36.5,29.15,SW,236,0.0,0.0,100,0.00,,---,0.00,VWS V14.00,2013-01-16 19:55:00,
2013-01-16 15:00:00,36.5,36.5,29.15,SW,236,0.0,0.0,100,0.00,,---,0.00,VWS V14.00,2013-01-16 20:00:00,
2013-01-16 15:05:00,36.7,36.7,29.15,West,267,3.1,3.1,100,0.00,,---,0.00,VWS V14.00,2013-01-16 20:05:00,
2013-01-16 15:10:00,36.7,36.7,29.12,West,267,3.1,3.1,100,0.00,,---,0.00,VWS V14.00,2013-01-16 20:10:00,
2013-01-16 15:15:00,36.3,36.3,29.12,WSW,243,4.0,7.2,100,0.00,,---,0.00,VWS V14.00,2013-01-16 20:15:00,
2013-01-16 15:20:00,36.3,36.3,29.15,SSW,207,6.3,6.3,100,0.00,,---,0.00,VWS V14.00,2013-01-16 20:20:00,
2013-01-16 15:25:00,36.1,36.1,29.15,West,273,4.9,4.9,100,0.00,,---,0.00,VWS V14.00,2013-01-16 20:25:00,
2013-01-16 15:30:00,36.1,36.1,29.15,SW,222,6.3,6.3,100,0.00,,---,0.00,VWS V14.00,2013-01-16 20:30:00,
2013-01-16 15:35:00,36.0,36.0,29.15,SW,222,6.3,6.3,100,0.00,,---,0.00,VWS V14.00,2013-01-16 20:35:00,
2013-01-16 15:40:00,36.0,36.0,29.15,SW,222,6.3,6.3,100,0.00,,---,0.00,VWS V14.00,2013-01-16 20:40:00,
2013-01-16 15:45:00,36.0,36.0,29.12,WSW,249,3.6,3.6,100,0.00,,---,0.00,VWS V14.00,2013-01-16 20:45:00,
2013-01-16 15:50:00,36.1,36.1,29.12,WSW,241,2.7,2.7,100,0.00,,---,0.00,VWS V14.00,2013-01-16 20:50:00,
2013-01-16 15:55:00,36.1,36.1,29.12,SW,236,2.7,5.4,100,0.00,,---,0.00,VWS V14.00,2013-01-16 20:55:00,
2013-01-16 16:00:00,35.8,35.8,29.15,SSW,208,3.6,3.6,100,0.00,,---,0.00,VWS V14.00,2013-01-16 21:00:00,
2013-01-16 16:05:00,35.8,35.8,29.15,SSW,208,3.6,3.6,100,0.00,,---,0.00,VWS V14.00,2013-01-16 21:05:00,
2013-01-16 16:10:00,35.8,35.8,29.15,SW,233,4.0,4.0,100,0.00,,---,0.00,VWS V14.00,2013-01-16 21:10:00,
2013-01-16 16:15:00,35.6,35.6,29.15,SW,233,4.0,4.0,100,0.00,,---,0.00,VWS V14.00,2013-01-16 21:15:00,
2013-01-16 16:20:00,35.6,35.6,29.15,SSW,201,3.1,3.1,100,0.00,,---,0.00,VWS V14.00,2013-01-16 21:20:00,
2013-01-16 16:25:00,35.4,35.4,29.15,SSW,212,0.0,0.0,100,0.00,,---,0.00,VWS V14.00,2013-01-16 21:25:00,
2013-01-16 16:30:00,35.4,35.4,29.15,SW,215,0.0,0.0,100,0.00,,---,0.00,VWS V14.00,2013-01-16 21:30:00,
2013-01-16 16:35:00,35.2,35.2,29.15,South,179,4.0,4.0,100,0.00,,---,0.00,VWS V14.00,2013-01-16 21:35:00,
2013-01-16 16:40:00,35.1,35.1,29.15,SW,224,5.4,5.4,100,0.00,,---,0.00,VWS V14.00,2013-01-16 21:40:00,
2013-01-16 16:45:00,35.1,35.1,29.15,SW,224,5.4,5.4,100,0.00,,---,0.00,VWS V14.00,2013-01-16 21:45:00,
2013-01-16 16:50:00,34.9,34.9,29.15,SSW,210,2.7,2.7,100,0.00,,---,0.00,VWS V14.00,2013-01-16 21:50:00,
2013-01-16 16:55:00,34.9,34.9,29.18,SSW,203,4.9,4.9,100,0.00,,---,0.00,VWS V14.00,2013-01-16 21:55:00,
2013-01-16 17:00:00,34.5,34.5,29.18,SSW,203,4.9,4.9,100,0.00,,---,0.00,VWS V14.00,2013-01-16 22:00:00,
2013-01-16 17:05:00,34.5,34.5,29.18,SW,222,4.0,4.0,100,0.00,,---,0.00,VWS V14.00,2013-01-16 22:05:00,
2013-01-16 17:10:00,34.3,34.3,29.18,SSW,210,3.6,3.6,100,0.00,,---,0.00,VWS V14.00,2013-01-16 22:10:00,
2013-01-16 17:15:00,34.3,34.3,29.18,SSW,202,3.1,3.1,100,0.00,,---,0.00,VWS V14.00,2013-01-16 22:15:00,
2013-01-16 17:20:00,34.3,34.3,29.18,SSW,202,3.1,3.1,100,0.00,,---,0.00,VWS V14.00,2013-01-16 22:20:00,
2013-01-16 17:25:00,34.2,34.2,29.18,SW,231,3.1,3.1,100,0.00,,---,0.00,VWS V14.00,2013-01-16 22:25:00,
2013-01-16 17:30:00,34.0,34.0,29.18,SSW,208,2.7,2.7,100,0.00,,---,0.00,VWS V14.00,2013-01-16 22:30:00,
2013-01-16 17:35:00,34.0,34.0,29.18,SSW,208,2.7,2.7,100,0.00,,---,0.00,VWS V14.00,2013-01-16 22:35:00,
2013-01-16 17:40:00,34.0,34.0,29.18,SW,228,2.7,2.7,100,0.00,,---,0.00,VWS V14.00,2013-01-16 22:40:00,
2013-01-16 17:45:00,33.8,33.8,29.18,SSW,211,2.7,2.7,100,0.00,,---,0.00,VWS V14.00,2013-01-16 22:45:00,
2013-01-16 17:50:00,33.6,33.6,29.18,SSW,211,2.7,2.7,100,0.00,,---,0.00,VWS V14.00,2013-01-16 22:50:00,
2013-01-16 17:55:00,33.6,33.6,29.18,SW,228,3.1,3.1,100,0.00,,---,0.00,VWS V14.00,2013-01-16 22:55:00,
2013-01-16 18:00:00,33.6,33.6,29.18,WSW,257,2.7,2.7,100,0.00,,---,0.00,VWS V14.00,2013-01-16 23:00:00,
2013-01-16 18:05:00,33.6,33.6,29.18,SSW,210,8.7,8.7,100,0.00,,---,0.00,VWS V14.00,2013-01-16 23:05:00,
2013-01-16 18:10:00,33.4,33.4,29.18,WNW,289,5.8,5.8,100,0.00,,---,0.00,VWS V14.00,2013-01-16 23:10:00,
2013-01-16 18:15:00,33.4,33.4,29.18,SSW,207,3.6,3.6,100,0.00,,---,0.00,VWS V14.00,2013-01-16 23:15:00,
2013-01-16 18:20:00,33.3,33.3,29.18,SSW,192,3.1,4.0,100,0.00,,---,0.00,VWS V14.00,2013-01-16 23:20:00,
2013-01-16 18:25:00,33.3,33.3,29.18,SSW,212,2.7,2.7,100,0.00,,---,0.00,VWS V14.00,2013-01-16 23:25:00,
2013-01-16 18:30:00,33.3,33.3,29.18,WSW,237,5.8,5.8,100,0.00,,---,0.00,VWS V14.00,2013-01-16 23:30:00,
2013-01-16 18:35:00,32.9,32.9,29.18,South,191,3.6,3.6,100,0.00,,---,0.00,VWS V14.00,2013-01-16 23:35:00,
2013-01-16 18:40:00,32.7,32.7,29.18,South,191,3.6,3.6,100,0.00,,---,0.00,VWS V14.00,2013-01-16 23:40:00,
2013-01-16 18:45:00,32.5,32.5,29.18,SSW,202,0.0,0.0,100,0.00,,---,0.00,VWS V14.00,2013-01-16 23:45:00,
2013-01-16 18:50:00,32.5,32.5,29.18,SSW,202,0.0,0.0,100,0.00,,---,0.00,VWS V14.00,2013-01-16 23:50:00,
2013-01-16 18:55:00,32.5,32.5,29.18,SSW,202,0.0,0.0,100,0.00,,---,0.00,VWS V14.00,2013-01-16 23:55:00,
2013-01-16 19:00:00,32.2,32.2,29.18,SSW,202,0.0,0.0,100,0.00,,---,0.00,VWS V14.00,2013-01-17 00:00:00,
2013-01-16 19:05:00,32.2,32.2,29.18,SSW,199,5.8,5.8,100,0.00,,---,0.00,VWS V14.00,2013-01-17 00:05:00,
2013-01-16 19:10:00,32.2,32.2,29.18,SSW,204,4.0,5.8,100,0.00,,---,0.00,VWS V14.00,2013-01-17 00:10:00,
2013-01-16 19:15:00,32.2,32.2,29.18,WSW,247,2.7,2.7,100,0.00,,---,0.00,VWS V14.00,2013-01-17 00:15:00,
2013-01-16 19:20:00,32.0,32.0,29.18,SW,219,3.1,3.1,100,0.00,,---,0.00,VWS V14.00,2013-01-17 00:20:00,
2013-01-16 19:25:00,32.2,32.2,29.18,WSW,258,4.0,4.0,100,0.00,,---,0.00,VWS V14.00,2013-01-17 00:25:00,
2013-01-16 19:30:00,32.2,32.2,29.18,SSW,211,3.6,3.6,100,0.00,,---,0.00,VWS V14.00,2013-01-17 00:30:00,
2013-01-16 19:35:00,31.8,31.8,29.18,SSW,211,3.6,3.6,100,0.00,,---,0.00,VWS V14.00,2013-01-17 00:35:00,
2013-01-16 19:40:00,31.8,31.8,29.18,SW,230,4.0,4.0,100,0.00,,---,0.00,VWS V14.00,2013-01-17 00:40:00,
2013-01-16 19:45:00,31.8,31.8,29.21,SSW,213,4.0,4.0,100,0.00,,---,0.00,VWS V14.00,2013-01-17 00:45:00,
2013-01-16 19:50:00,31.6,31.6,29.21,West,262,3.6,3.6,100,0.00,,---,0.00,VWS V14.00,2013-01-17 00:50:00,
2013-01-16 19:55:00,31.6,31.6,29.21,SSW,208,3.6,3.6,100,0.00,,---,0.00,VWS V14.00,2013-01-17 00:55:00,
2013-01-16 20:00:00,31.5,31.5,29.21,SSW,208,3.6,3.6,100,0.00,,---,0.00,VWS V14.00,2013-01-17 01:00:00,
2013-01-16 20:05:00,31.5,31.5,29.21,SW,224,3.6,3.6,100,0.00,,---,0.00,VWS V14.00,2013-01-17 01:05:00,
2013-01-16 20:10:00,31.5,31.5,29.21,SSW,206,4.0,5.8,100,0.00,,---,0.00,VWS V14.00,2013-01-17 01:10:00,
2013-01-16 20:15:00,31.5,31.5,29.21,SW,220,5.4,5.4,100,0.00,,---,0.00,VWS V14.00,2013-01-17 01:15:00,
2013-01-16 20:20:00,31.5,31.5,29.21,SW,220,5.4,5.4,100,0.00,,---,0.00,VWS V14.00,2013-01-17 01:20:00,
2013-01-16 20:25:00,31.5,31.5,29.21,SSE,166,5.4,5.4,100,0.00,,---,0.00,VWS V14.00,2013-01-17 01:25:00,
2013-01-16 20:30:00,31.6,31.6,29.21,SW,232,3.1,5.4,100,0.00,,---,0.00,VWS V14.00,2013-01-17 01:30:00,
2013-01-16 20:35:00,31.5,31.5,29.21,WSW,247,4.9,4.9,100,0.00,,---,0.00,VWS V14.00,2013-01-17 01:35:00,
2013-01-16 20:40:00,31.5,31.5,29.21,SSW,213,4.9,4.9,100,0.00,,---,0.00,VWS V14.00,2013-01-17 01:40:00,
2013-01-16 20:45:00,31.5,31.5,29.21,SW,215,5.4,5.4,100,0.00,,---,0.00,VWS V14.00,2013-01-17 01:45:00,
2013-01-16 20:50:00,31.5,31.5,29.21,SW,229,5.8,5.8,100,0.00,,---,0.00,VWS V14.00,2013-01-17 01:50:00,
2013-01-16 20:55:00,31.5,31.5,29.21,WSW,253,7.6,7.6,100,0.00,,---,0.00,VWS V14.00,2013-01-17 01:55:00,
2013-01-16 21:00:00,31.5,31.5,29.21,SSW,212,6.3,6.3,100,0.00,,---,0.00,VWS V14.00,2013-01-17 02:00:00,
2013-01-16 21:05:00,31.5,31.5,29.21,WSW,251,2.7,2.7,100,0.00,,---,0.00,VWS V14.00,2013-01-17 02:05:00,
2013-01-16 21:10:00,31.5,31.5,29.21,WSW,251,2.7,2.7,100,0.00,,---,0.00,VWS V14.00,2013-01-17 02:10:00,
2013-01-16 21:15:00,31.5,31.5,29.21,WSW,247,2.7,2.7,100,0.00,,---,0.00,VWS V14.00,2013-01-17 02:15:00,
2013-01-16 21:20:00,31.5,31.5,29.21,SW,227,4.9,4.9,100,0.00,,---,0.00,VWS V14.00,2013-01-17 02:20:00,
2013-01-16 21:25:00,31.5,31.5,29.21,West,273,3.6,3.6,100,0.00,,---,0.00,VWS V14.00,2013-01-17 02:25:00,
2013-01-16 21:30:00,31.5,31.5,29.21,WSW,239,3.1,3.1,100,0.00,,---,0.00,VWS V14.00,2013-01-17 02:30:00,
2013-01-16 21:35:00,31.5,31.5,29.21,WSW,239,3.1,3.1,100,0.00,,---,0.00,VWS V14.00,2013-01-17 02:35:00,
2013-01-16 21:40:00,31.5,31.5,29.21,WSW,239,3.1,3.1,100,0.00,,---,0.00,VWS V14.00,2013-01-17 02:40:00,
2013-01-16 21:45:00,31.6,31.6,29.21,West,268,5.8,5.8,100,0.00,,---,0.00,VWS V14.00,2013-01-17 02:45:00,
2013-01-16 21:50:00,31.6,31.6,29.21,WNW,287,3.1,3.1,100,0.00,,---,0.00,VWS V14.00,2013-01-17 02:50:00,
2013-01-16 21:55:00,31.6,31.6,29.21,WNW,286,0.0,0.0,100,0.00,,---,0.00,VWS V14.00,2013-01-17 02:55:00,
2013-01-16 22:00:00,31.5,31.5,29.21,West,268,3.1,3.1,100,0.00,,---,0.00,VWS V14.00,2013-01-17 03:00:00,
2013-01-16 22:05:00,31.5,31.5,29.21,WSW,244,5.4,5.4,100,0.00,,---,0.00,VWS V14.00,2013-01-17 03:05:00,
2013-01-16 22:10:00,31.5,31.5,29.21,West,269,4.9,4.9,100,0.00,,---,0.00,VWS V14.00,2013-01-17 03:10:00,
2013-01-16 22:15:00,31.5,31.5,29.21,West,268,4.0,4.0,100,0.00,,---,0.00,VWS V14.00,2013-01-17 03:15:00,
2013-01-16 22:20:00,31.5,31.5,29.21,West,268,4.0,4.0,100,0.00,,---,0.00,VWS V14.00,2013-01-17 03:20:00,
2013-01-16 22:25:00,31.5,31.5,29.21,West,275,3.1,3.1,100,0.00,,---,0.00,VWS V14.00,2013-01-17 03:25:00,
2013-01-16 22:30:00,31.6,31.6,29.21,West,275,3.1,3.1,100,0.00,,---,0.00,VWS V14.00,2013-01-17 03:30:00,
2013-01-16 22:35:00,31.6,31.6,29.21,SSW,193,5.8,5.8,100,0.00,,---,0.00,VWS V14.00,2013-01-17 03:35:00,
2013-01-16 22:40:00,31.6,31.6,29.21,WSW,237,5.4,5.4,100,0.00,,---,0.00,VWS V14.00,2013-01-17 03:40:00,
2013-01-16 22:45:00,31.6,31.6,29.21,WSW,237,5.4,5.4,100,0.00,,---,0.00,VWS V14.00,2013-01-17 03:45:00,
2013-01-16 22:50:00,31.6,31.6,29.21,West,277,8.1,8.1,100,0.00,,---,0.00,VWS V14.00,2013-01-17 03:50:00,
2013-01-16 22:55:00,31.3,31.3,29.21,West,277,8.1,8.1,100,0.00,,---,0.00,VWS V14.00,2013-01-17 03:55:00,
2013-01-16 23:00:00,31.3,31.3,29.21,West,277,8.1,8.1,100,0.00,,---,0.00,VWS V14.00,2013-01-17 04:00:00,
2013-01-16 23:05:00,31.3,31.3,29.21,SSW,204,3.1,4.0,100,0.00,,---,0.00,VWS V14.00,2013-01-17 04:05:00,
2013-01-16 23:10:00,31.3,31.3,29.23,SSW,204,3.1,3.1,100,0.00,,---,0.00,VWS V14.00,2013-01-17 04:10:00,
2013-01-16 23:15:00,31.1,31.1,29.23,SSW,204,3.1,3.1,100,0.00,,---,0.00,VWS V14.00,2013-01-17 04:15:00,
2013-01-16 23:20:00,31.3,31.3,29.23,SSW,204,3.1,3.1,100,0.00,,---,0.00,VWS V14.00,2013-01-17 04:20:00,
2013-01-16 23:25:00,31.3,31.3,29.23,West,270,5.4,5.4,100,0.00,,---,0.00,VWS V14.00,2013-01-17 04:25:00,
2013-01-16 23:30:00,31.3,31.3,29.23,WSW,256,4.0,4.0,100,0.00,,---,0.00,VWS V14.00,2013-01-17 04:30:00,
2013-01-16 23:35:00,31.3,31.3,29.23,West,279,4.0,4.0,100,0.00,,---,0.00,VWS V14.00,2013-01-17 04:35:00,
2013-01-16 23:40:00,31.3,31.3,29.21,WSW,244,3.6,3.6,100,0.00,,---,0.00,VWS V14.00,2013-01-17 04:40:00,
2013-01-16 23:45:00,31.5,31.5,29.21,WSW,244,3.6,3.6,100,0.00,,---,0.00,VWS V14.00,2013-01-17 04:45:00,
2013-01-16 23:50:00,31.5,31.5,29.21,WSW,244,3.6,3.6,100,0.00,,---,0.00,VWS V14.00,2013-01-17 04:50:00,
2013-01-16 23:55:00,31.6,31.6,29.21,WSW,257,5.8,5.8,100,0.00,,---,0.00,VWS V14.00,2013-01-17 04:55:00,